Weather History for Muscle Shoals, AL

Change the Weather History Date:

Thursday, October 31, 2013

  Actual Average Record
Temperature  
Mean Temperature 68 °F 57 °F  
Max Temperature 71 °F 69 °F 86 °F (2000)
Min Temperature 64 °F 45 °F 23 °F (1917)
Degree Days  
Heating Degree Days 0 9  
Month to date heating degree days 130 155  
Since 1 July heating degree days 130 168  
Cooling Degree Days 3 1  
Month to date cooling degree days 104 62  
Year to date cooling degree days 1894 1864  
Growing Degree Days 18 (Base 50)    
Moisture  
Dew Point 62 °F    
Average Humidity 75    
Maximum Humidity 87    
Minimum Humidity 63    
Precipitation  
Precipitation 0.42 in 0.12 in 1.47 in (1942)
Month to date precipitation 1.81 3.43  
Year to date precipitation 47.16 42.86  
Snow  
Snow 0.00 in - - ()
Month to date snowfall 0.0  
Since 1 July snowfall 0.0  
Since 1 September snowfall 0.0  
Snow Depth 0.00 in    
Sea Level Pressure  
Sea Level Pressure 29.84 in    
Wind  
Wind Speed 13 mph (South)    
Max Wind Speed 29 mph    
Max Gust Speed 38 mph    
Visibility 8 miles    
Events Rain    
T = Trace of Precipitation, MM = Missing Value Source: NWS Daily Summary

Daily Weather History Graph

Daily Weather History Graph

Search for Another Location

Airport:

Trip Planner

Search our weather history database for the weather conditions in past years. The results will help you decide how hot, cold, wet, or windy it might be!

Date:

Astronomy

Oct. 31, 2013 Rise Set
Actual Time 7:10 AM CDT 5:57 PM CDT
Civil Twilight 6:44 AM CDT 6:23 PM CDT
Nautical Twilight 6:14 AM CDT 6:53 PM CDT
Astronomical Twilight 5:44 AM CDT 7:22 PM CDT
Moon 4:06 AM CDT (10/31) 4:09 PM CDT (10/31)
Length of Visible Light 11h 39m
Length of Day
10h 46m
Waning Crescent, 10% of the Moon is Illuminated
Oct 31
Waning Crescent
Nov 3
New
Nov 9
First Quarter
Nov 17
Full
Nov 25
Last Quarter

Hourly Weather History & Observations

Time (CDT) Temp. Dew Point Humidity Pressure Visibility Wind Dir Wind Speed Gust Speed Precip Events Conditions
12:53 AM 66.9 °F 55.9 °F 68% 30.04 in 10.0 mi SE 6.9 mph - N/A   Clear
1:53 AM 68.0 °F 55.9 °F 65% 30.03 in 10.0 mi SSE 9.2 mph - N/A   Partly Cloudy
2:53 AM 66.9 °F 57.0 °F 70% 30.02 in 10.0 mi SSE 4.6 mph - N/A   Mostly Cloudy
3:53 AM 69.1 °F 57.0 °F 65% 30.00 in 10.0 mi South 9.2 mph - N/A   Overcast
4:53 AM 66.9 °F 57.9 °F 73% 29.99 in 9.0 mi SSE 8.1 mph - 0.01 in Rain Light Rain
5:53 AM 64.0 °F 59.0 °F 84% 29.98 in 9.0 mi SE 5.8 mph - 0.02 in Rain Light Rain
6:53 AM 64.0 °F 60.1 °F 87% 29.95 in 8.0 mi SE 6.9 mph - 0.03 in   Overcast
7:53 AM 64.9 °F 60.1 °F 84% 29.94 in 9.0 mi SSE 8.1 mph - N/A   Overcast
8:41 AM 66.2 °F 60.8 °F 83% 29.95 in 10.0 mi SSE 6.9 mph - N/A   Overcast
8:53 AM 66.0 °F 60.1 °F 81% 29.94 in 9.0 mi SSE 8.1 mph - N/A   Overcast
9:53 AM 66.9 °F 61.0 °F 81% 29.94 in 6.0 mi SSE 6.9 mph - 0.01 in Rain Light Rain
10:53 AM 69.1 °F 62.1 °F 78% 29.91 in 10.0 mi South 10.4 mph 20.7 mph 0.00 in   Overcast
11:53 AM 71.1 °F 63.0 °F 75% 29.89 in 10.0 mi South 19.6 mph 25.3 mph 0.00 in   Overcast
12:53 PM 70.0 °F 64.0 °F 81% 29.86 in 3.0 mi South 12.7 mph 21.9 mph 0.04 in Rain Light Rain
1:15 PM 69.8 °F 64.4 °F 83% 29.84 in 5.0 mi South 13.8 mph 20.7 mph 0.01 in Rain Light Rain
1:43 PM 69.8 °F 64.4 °F 83% 29.82 in 4.0 mi South 13.8 mph - 0.03 in Rain Light Rain
1:53 PM 70.0 °F 64.9 °F 84% 29.80 in 4.0 mi South 12.7 mph 24.2 mph 0.05 in Rain Rain
2:07 PM 69.8 °F 64.4 °F 83% 29.80 in 4.0 mi South 16.1 mph - 0.02 in Rain Rain
2:53 PM 70.0 °F 64.9 °F 84% 29.75 in 5.0 mi South 15.0 mph 24.2 mph 0.10 in Rain Light Rain
3:53 PM 70.0 °F 64.9 °F 84% 29.73 in 6.0 mi South 19.6 mph 27.6 mph 0.04 in Rain Light Rain
4:53 PM 70.0 °F 64.0 °F 81% 29.72 in 6.0 mi South 25.3 mph 32.2 mph 0.02 in Rain Light Rain
5:53 PM 70.0 °F 64.0 °F 81% 29.70 in 10.0 mi South 19.6 mph 34.5 mph 0.07 in Rain Light Rain
6:53 PM 69.1 °F 63.0 °F 81% 29.70 in 10.0 mi SSW 21.9 mph 29.9 mph 0.03 in Rain Light Rain
7:01 PM 69.8 °F 62.6 °F 78% 29.71 in 10.0 mi South 19.6 mph 29.9 mph 0.00 in   Mostly Cloudy
7:32 PM 68.0 °F 60.8 °F 78% 29.72 in 10.0 mi SSW 20.7 mph 28.8 mph 0.00 in   Mostly Cloudy
7:53 PM 68.0 °F 61.0 °F 78% 29.71 in 10.0 mi South 19.6 mph 24.2 mph 0.00 in   Overcast
8:15 PM 69.8 °F 60.8 °F 73% 29.73 in 10.0 mi SSW 19.6 mph 31.1 mph N/A   Overcast
8:53 PM 70.0 °F 62.1 °F 76% 29.73 in 10.0 mi SSW 19.6 mph 29.9 mph N/A   Overcast
9:53 PM 69.1 °F 61.0 °F 75% 29.72 in 10.0 mi South 19.6 mph 31.1 mph N/A   Mostly Cloudy
10:21 PM 69.8 °F 62.6 °F 78% 29.74 in 10.0 mi SSW 13.8 mph - N/A   Mostly Cloudy
10:53 PM 69.1 °F 62.1 °F 78% 29.73 in 10.0 mi SW 12.7 mph - N/A   Mostly Cloudy
11:22 PM 69.8 °F 62.6 °F 78% 29.75 in 10.0 mi WSW 9.2 mph - N/A   Scattered Clouds
11:53 PM 68.0 °F 62.1 °F 81% 29.74 in 10.0 mi WSW 10.4 mph - N/A   Clear